| time (UTC) | temp C | wind direction | speed KPH | gust KPH | rain 1hr cm | rain 24hr cm | rain mn cm | humidity % | barometer mb |
| 20260906083039 | 22 | 323 | 4.8 | 8.0 | 0.00 | 0.38 | 0.00 | 91 | 1013.3 |
| 20260906080039 | 22 | 5 | 11.3 | 12.9 | 0.00 | 0.38 | 0.00 | 91 | 1012.9 |
| 20260906063035 | 23 | 0 | 0.0 | 6.4 | 0.00 | 0.38 | 0.00 | 89 | 1013.4 |
| 20260906061538 | 23 | 311 | 6.4 | 12.9 | 0.00 | 0.38 | 0.00 | 88 | 1013.6 |
| 20260906053036 | 23 | 331 | 6.4 | 12.9 | 0.00 | 0.38 | 0.00 | 89 | 1014.2 |
| 20260906013055 | 25 | 224 | 12.9 | 19.3 | 0.03 | 0.36 | 0.36 | 84 | 1014.2 |
| 20260906011535 | 25 | 236 | 6.4 | 8.0 | 0.03 | 0.33 | 0.33 | 82 | 1014.1 |
| 20260906010037 | 25 | 0 | 0.0 | 4.8 | 0.03 | 0.33 | 0.33 | 81 | 1014.1 |
| 20260906001554 | 25 | 34 | 8.0 | 12.9 | 0.03 | 0.30 | 0.30 | 81 | 1013.2 |
| 20260905233034 | 26 | 58 | 4.8 | 8.0 | 0.03 | 0.28 | 0.28 | 81 | 1013.3 |
| 20260905231535 | 26 | 295 | 3.2 | 6.4 | 0.03 | 0.28 | 0.28 | 79 | 1013.3 |
| 20260905224535 | 26 | 0 | 0.0 | 1.6 | 0.03 | 0.25 | 0.25 | 84 | 1013.3 |
| 20260905221542 | 25 | 298 | 3.2 | 6.4 | 0.03 | 0.25 | 0.25 | 84 | 1013.2 |
| 20260905213036 | 25 | 90 | 4.8 | 9.7 | 0.03 | 0.23 | 0.23 | 84 | 1013.7 |
| 20260905211536 | 25 | 154 | 1.6 | 8.0 | 0.03 | 0.23 | 0.23 | 87 | 1013.9 |
| 20260905204535 | 25 | 261 | 12.9 | 20.9 | 0.18 | 0.23 | 0.23 | 83 | 1013.9 |
| 20260905203037 | 24 | 78 | 11.3 | 20.9 | 0.20 | 0.20 | 0.20 | 80 | 1013.7 |
| 20260905201536 | 23 | 108 | 9.7 | 27.4 | 0.20 | 0.20 | 0.20 | 84 | 1014.1 |
| 20260905200056 | 23 | 99 | 20.9 | 38.6 | 0.15 | 0.15 | 0.15 | 82 | 1013.9 |
| 20260905193040 | 29 | 53 | 20.9 | 43.5 | 0.00 | 0.00 | 0.00 | 61 | 1014.7 |
| 20260905191535 | 33 | 76 | 24.1 | 41.8 | 0.00 | 0.00 | 0.00 | 51 | 1014.1 |
| 20260905190037 | 35 | 84 | 4.8 | 8.0 | 0.00 | 0.00 | 0.00 | 47 | 1013.6 |
| 20260905183041 | 35 | 146 | 8.0 | 14.5 | 0.00 | 0.00 | 0.00 | 46 | 1013.5 |
| 20260905180040 | 35 | 209 | 11.3 | 22.5 | 0.00 | 0.00 | 0.00 | 49 | 1013.9 |
| 20260905174533 | 35 | 298 | 3.2 | 8.0 | 0.00 | 0.00 | 0.00 | 49 | 1014.1 |
| 20260905171537 | 33 | 152 | 9.7 | 16.1 | 0.00 | 0.00 | 0.00 | 50 | 1014.3 |
| 20260905170035 | 33 | 130 | 6.4 | 12.9 | 0.00 | 0.00 | 0.00 | 55 | 1014.5 |
| 20260905164537 | 33 | 215 | 6.4 | 14.5 | 0.00 | 0.00 | 0.00 | 57 | 1015.0 |
| 20260905163035 | 33 | 53 | 4.8 | 12.9 | 0.00 | 0.00 | 0.00 | 56 | 1015.2 |
| 20260905161536 | 32 | 202 | 4.8 | 16.1 | 0.00 | 0.00 | 0.00 | 59 | 1015.3 |
| 20260905160034 | 32 | 227 | 6.4 | 12.9 | 0.00 | 0.00 | 0.00 | 61 | 1015.4 |
| 20260905153037 | 31 | 232 | 4.8 | 12.9 | 0.00 | 0.00 | 0.00 | 66 | 1015.7 |
| 20260905151536 | 31 | 324 | 4.8 | 11.3 | 0.00 | 0.00 | 0.00 | 66 | 1015.7 |
| 20260905144543 | 30 | 265 | 4.8 | 11.3 | 0.00 | 0.00 | 0.00 | 71 | 1015.9 |
| 20260905143037 | 28 | 263 | 4.8 | 11.3 | 0.00 | 0.00 | 0.00 | 74 | 1015.9 |
| 20260905140035 | 27 | 308 | 4.8 | 12.9 | 0.00 | 0.00 | 0.00 | 79 | 1016.1 |
| 20260905134538 | 26 | 345 | 6.4 | 12.9 | 0.00 | 0.00 | 0.00 | 83 | 1016.3 |
| 20260905131545 | 25 | 284 | 8.0 | 14.5 | 0.00 | 0.00 | 0.00 | 85 | 1016.2 |
| 20260905130035 | 25 | 267 | 9.7 | 17.7 | 0.00 | 0.00 | 0.00 | 87 | 1016.1 |
| 20260905124535 | 24 | 302 | 8.0 | 12.9 | 0.00 | 0.00 | 0.00 | 89 | 1016.1 |
| 20260905123059 | 23 | 260 | 9.7 | 12.9 | 0.00 | 0.00 | 0.00 | 91 | 1016.1 |
| 20260905121535 | 23 | 296 | 8.0 | 12.9 | 0.00 | 0.00 | 0.00 | 92 | 1016.1 |
| 20260905120034 | 23 | 284 | 8.0 | 11.3 | 0.00 | 0.00 | 0.00 | 94 | 1015.8 |
| 20260905114534 | 22 | 288 | 6.4 | 9.7 | 0.00 | 0.00 | 0.00 | 94 | 1015.7 |
| 20260905113035 | 22 | 277 | 6.4 | 11.3 | 0.00 | 0.00 | 0.00 | 94 | 1015.5 |
| 20260905111537 | 22 | 273 | 6.4 | 9.7 | 0.00 | 0.00 | 0.00 | 94 | 1015.4 |
| 20260905110035 | 22 | 280 | 8.0 | 12.9 | 0.00 | 0.00 | 0.00 | 93 | 1015.3 |
| 20260905104531 | 23 | 271 | 9.7 | 12.9 | 0.00 | 0.00 | 0.00 | 93 | 1015.1 |
| 20260905103043 | 23 | 279 | 9.7 | 12.9 | 0.00 | 0.00 | 0.00 | 92 | 1015.0 |
| 20260905101534 | 23 | 279 | 11.3 | 14.5 | 0.00 | 0.00 | 0.00 | 92 | 1015.0 |
| 20260905100047 | 23 | 304 | 8.0 | 12.9 | 0.00 | 0.00 | 0.00 | 92 | 1015.2 |
| 20260905093034 | 23 | 309 | 4.8 | 8.0 | 0.00 | 0.00 | 0.00 | 93 | 1015.1 |
| 20260905084534 | 24 | 277 | 9.7 | 12.9 | 0.00 | 0.00 | 0.00 | 93 | 1015.1 |